User: anonymous   Login
Location: Unspecified
(0.0000°N, 0.0000°E)
Time: 17:23:58
(UTC+02:00)
Language:

AO-7 - Orbit

View from above orbital plane
View from above orbital plane
View from above satellite
View from above satellite

Ground track
Ground track

The orbit data is extracted from the following two-line orbital elements,

1  7530U 74089B   17232.16060340 -.00000042 +00000-0 +14875-4 0  9994
2  7530 101.6378 199.6003 0011771 196.6738 231.5333 12.53628192956647
Epoch (UTC): 20 August 2017 03:51:16
Eccentricity: 0.0011771
inclination: 101.6378°
perigee height: 1440 km
apogee height: 1458 km
right ascension of ascending node: 199.6003°
argument of perigee: 196.6738°
revolutions per day: 12.53628192
mean anomaly at epoch: 231.5333°
orbit number at epoch: 95664

The dashed part of the orbit path shows where the satellite is in the earth's shadow,  

DLR